Home > Weather > West Covina > Past weeks

Flag for U.S.A. Weather for the Past 2 Weeks in West Covina, California, U.S.A.

Now
78 °F

Sunny.


Feels Like: 77 °F
Forecast: 46 / 74 °F
Wind: 15 mph from East

Location: Fullerton Municipal Airport

Current Time: Feb 5, 2016 at 3:14:18 PM

Latest Report: Feb 5, 2016 at 1:53 PM


Visibility: 10 mi

Pressure: 30.24 "Hg

Humidity: 12%

Dew point: 21 °F

Location of West CovinaLocation

Historic Weather in West Covina — Graph

°F

West Covina Temperature Yesterday

Maximum temperature yesterday: 73 °F (at 2:53 PM)
Minimum temperature yesterday: 42 °F (at 6:53 AM)
Average temperature yesterday: 57 °F

High & Low Weather Summary for the Past Weeks

 TemperatureHumidityPressure
High78 °F (Jan 21, 1:53 PM)90% (Jan 24, 3:53 AM)30.35 "Hg (Jan 24, 3:53 AM)
Low36 °F (Feb 2, 5:53 AM)12% (Jan 26, 2:53 PM)29.61 "Hg (Jan 31, 2:00 PM)
Average57 °F55%30.10 "Hg
* Reported Jan 21 1:53 PM — Feb 5 1:53 PM, West Covina, Weather by CustomWeather, © 2016

Note: Actual official high and low records may vary slightly from our data, if they occured in-between our weather recording intervals... More about our weather records

Advertising

West Covina Weather History for the Previous 24 Hours

 ConditionsComfort  
Time TempWeatherWind HumidityBarometerVisibility
1:53 PM
Fri, Feb 5
78 °FSunny.15 mph12%30.24 "Hg10 mi
12:53 PM77 °FSunny.12 mph12%30.25 "Hg10 mi
11:53 AM76 °FSunny.6 mph13%30.29 "Hg10 mi
10:53 AM74 °FSunny.9 mph13%30.31 "Hg10 mi
9:53 AM71 °FSunny.6 mph16%30.32 "Hg10 mi
8:53 AM65 °FSunny.No wind25%30.31 "Hg10 mi
7:53 AM57 °FSunny.No wind33%30.31 "Hg10 mi
6:53 AM59 °FSunny.5 mph23%30.29 "Hg10 mi
5:53 AM55 °FClear.6 mph31%30.27 "Hg10 mi
4:53 AM45 °FClear.No wind56%30.27 "Hg10 mi
3:53 AM46 °FClear.5 mph56%30.26 "Hg10 mi
2:53 AM47 °FClear.No wind54%30.25 "Hg10 mi
1:53 AM47 °FClear.No wind56%30.25 "Hg10 mi
12:53 AM49 °FClear.No wind57%30.25 "Hg10 mi
11:53 PM
Thu, Feb 4
51 °FClear.No wind50%30.25 "Hg10 mi
10:53 PM51 °FClear.No wind52%30.25 "Hg10 mi
9:53 PM54 °FClear.No wind43%30.24 "Hg10 mi
8:53 PM56 °FClear.3 mph40%30.24 "Hg10 mi
7:53 PM59 °FClear.No wind31%30.23 "Hg10 mi
6:53 PM62 °FClear.3 mph27%30.21 "Hg10 mi
5:53 PM65 °FClear.6 mph28%30.20 "Hg10 mi
4:53 PM69 °FSunny.6 mph21%30.19 "Hg10 mi
3:53 PM72 °FSunny.5 mph16%30.19 "Hg10 mi
Weather by CustomWeather, © 2016

See weather overviewHow to use our weather pages